Location: Unspecified
(40.7945°N, 0.0000°E)
Time: 03:37:15
(UTC+00:00)

Altair - Pass Details

Date: 22 January 2021
Orbit: 1501 x 1682 km, 47.2° (Epoch: 01 March)

Event Time Altitude Azimuth Distance (km) Brightness Sun altitude
Rises 03:44:18 0° 198° (SSW) 4,820 - -40.3°
Reaches altitude 10° 03:47:49 10° 189° (S) 3,861 - -39.6°
Exits shadow 03:50:37 19° 177° (S) 3,199 9.1 -39.1°
Maximum altitude 03:56:13 33° 130° (SE) 2,554 8.8 -38.1°
Drops below altitude 10° 04:04:46 10° 72° (ENE) 3,946 10.4 -36.5°
Sets 04:08:22 0° 64° (ENE) 4,939 11.0 -35.8°
